Date,TemperatureHighF,TemperatureAvgF,TemperatureLowF,DewpointHighF,DewpointAvgF,DewpointLowF,HumidityHigh,HumidityAvg,HumidityLow,PressureMaxIn,PressureMinIn,WindSpeedMaxMPH,WindSpeedAvgMPH,GustSpeedMaxMPH,PrecipitationSumIn
2013-3-1,45.6,39.1,32.7,33.1,30.8,27.5,93,73,58,29.89,29.70,12,6,19,0.00
2013-3-2,38.9,34.6,30.2,27.7,25.2,22.3,73,68,60,29.89,29.80,12,7,19,0.00
2013-3-3,36.7,31.9,28.6,23.5,21.3,19.0,72,65,56,29.89,29.78,12,8,21,0.00
2013-3-4,43.1,33.9,28.8,24.7,21.4,19.0,69,61,46,29.93,29.88,14,9,21,0.00
2013-3-5,39.9,37.5,34.1,30.6,29.5,28.3,82,73,65,30.06,30.03,2,0,14,0.00
2013-3-6,43.5,39.9,33.7,36.5,32.9,28.9,87,76,65,30.04,29.89,16,6,26,0.00
2013-3-7,45.1,39.1,33.2,34.8,30.4,26.9,94,71,56,30.18,30.02,9,4,17,0.00
2013-3-8,44.9,35.9,30.6,34.7,30.8,27.1,95,83,62,30.31,30.11,10,6,17,0.05
2013-3-9,61.4,43.1,29.9,29.9,25.7,18.6,86,55,20,30.40,30.28,8,3,20,0.00
2013-3-10,57.2,39.9,24.4,39.2,31.3,22.7,94,74,42,30.45,30.34,5,2,11,0.00
2013-3-11,58.9,46.1,36.3,49.6,41.4,33.4,95,85,56,30.40,30.12,5,2,10,0.00
2013-3-12,58.1,52.8,45.2,56.3,49.8,39.1,95,89,76,30.12,29.73,10,5,20,0.84
2013-3-13,49.1,42.5,35.3,39.1,31.1,23.0,85,65,42,29.99,29.89,12,6,21,0.01
2013-3-14,42.3,35.5,31.0,23.3,16.5,11.0,61,47,30,30.06,29.94,16,10,29,0.00
2013-3-15,48.9,38.9,28.7,33.6,23.3,13.7,64,53,43,30.08,29.80,12,6,20,0.00
2013-3-16,45.5,35.4,30.3,32.9,30.1,24.9,94,82,60,30.00,29.84,6,1,14,0.07
2013-3-17,38.4,32.9,28.2,32.0,23.7,19.3,95,70,48,30.39,30.00,9,3,15,0.01
2013-3-18,37.4,30.2,21.3,32.7,24.2,14.7,95,79,55,30.48,30.03,8,3,14,0.07
2013-3-19,50.0,39.6,34.0,39.1,32.8,18.8,96,79,43,30.03,29.76,14,4,20,0.63
2013-3-20,46.8,38.2,32.5,26.5,21.7,18.7,70,52,34,29.98,29.85,14,7,23,0.00
2013-3-21,38.9,33.5,29.7,30.4,21.3,14.7,94,62,39,29.91,29.72,10,4,16,0.01
2013-3-22,41.3,33.6,27.0,24.5,20.6,15.2,76,59,46,29.92,29.82,14,6,20,0.00
2013-3-24,48.9,39.4,26.1,29.4,23.9,20.8,82,55,37,30.04,29.77,9,3,14,0.00
2013-3-25,39.3,37.3,34.2,36.0,32.3,27.9,94,83,64,29.77,29.56,6,2,10,0.17
2013-3-26,53.2,41.8,35.1,36.8,32.7,26.6,94,73,39,29.96,29.69,9,3,15,0.00
2013-3-27,51.9,41.1,29.4,36.7,30.2,23.7,90,67,35,30.09,29.96,13,5,19,0.01
2013-3-28,49.2,42.0,34.0,33.5,31.4,28.6,82,67,50,30.13,30.06,10,5,15,0.00
2013-3-29,53.8,49.1,38.6,34.1,32.2,28.4,75,53,41,30.22,30.16,10,5,20,0.00
2013-3-30,58.9,43.5,28.2,34.4,27.8,19.9,94,60,23,30.26,30.15,10,2,15,0.00
2013-3-31,57.9,42.5,28.1,45.2,35.1,25.8,95,78,40,30.20,29.77,9,2,16,0.31